CDT,Max TemperatureF,Mean TemperatureF,Min TemperatureF,Max Dew PointF,MeanDew PointF,Min DewpointF,Max Humidity, Mean Humidity, Min Humidity, Max Sea Level PressureIn, Mean Sea Level PressureIn, Min Sea Level PressureIn, Max VisibilityMiles, Mean VisibilityMiles, Min VisibilityMiles, Max Wind SpeedMPH, Mean Wind SpeedMPH, Max Gust SpeedMPH,PrecipitationIn, CloudCover, Events, WindDirDegrees
2011-10-1,82,64,46,32,31,28,57,31,15,30.22,30.18,30.12,10,10,7,23,13,30,0.00,0,,153
2011-10-2,91,68,46,37,34,32,58,33,12,30.18,30.13,30.05,10,10,10,23,13,28,0.00,0,,175
2011-10-3,91,73,55,45,38,32,58,31,12,30.17,30.13,30.08,10,10,7,23,13,30,0.00,0,,195
2011-10-4,87,69,51,43,37,32,58,32,14,30.19,30.13,30.05,10,10,7,26,14,33,0.00,0,,186
2011-10-5,69,62,55,54,43,34,77,50,34,30.10,30.02,29.93,10,10,7,33,15,41,0.00,2,,165
2011-10-6,77,67,57,59,55,50,82,67,54,29.91,29.84,29.73,10,10,5,36,26,50,0.00,3,,160
2011-10-7,80,73,66,63,60,55,88,64,45,29.93,29.86,29.79,10,10,10,34,26,45,0.00,3,,164
2011-10-8,71,61,51,61,53,46,94,82,59,30.09,29.93,29.80,10,10,1,36,22,44,0.57,2,,162
2011-10-9,59,52,46,52,45,43,94,79,59,30.14,30.10,30.06,10,10,10,15,7,,0.00,5,,331
2011-10-10,69,55,41,55,49,39,100,81,49,30.11,30.03,29.93,10,6,0,20,9,24,0.01,4,,187
2011-10-11,78,66,53,55,51,43,94,70,29,29.94,29.84,29.73,10,10,10,23,14,29,0.00,1,,190
2011-10-12,75,60,46,55,42,32,100,59,22,30.04,29.92,29.81,10,7,0,29,10,34,0.00,1,,333
2011-10-13,77,57,37,41,35,30,87,50,21,30.12,30.05,29.90,10,10,4,18,8,23,0.00,0,,257
2011-10-14,73,58,44,43,41,37,87,55,29,30.06,29.96,29.90,10,10,10,16,9,24,0.00,0,,76
2011-10-15,80,61,42,46,38,34,71,48,24,30.15,30.08,29.99,10,10,10,15,8,20,0.00,0,,152
2011-10-16,71,63,55,46,41,37,67,47,29,30.08,30.01,29.96,10,10,10,20,13,28,0.00,0,,8
2011-10-17,68,54,41,45,37,32,81,58,32,30.11,29.94,29.83,10,10,5,37,10,44,0.03,1,,16
2011-10-18,60,48,37,43,31,23,93,57,23,30.26,30.21,30.14,10,10,10,34,20,40,0.00,2,,342
2011-10-19,62,48,35,28,26,23,75,47,22,30.23,30.16,30.05,10,10,10,17,10,25,0.00,0,,324
2011-10-20,69,51,33,30,29,27,81,48,21,30.06,30.01,29.96,10,10,5,25,9,29,0.00,0,,153
2011-10-21,78,56,33,34,30,27,81,46,15,30.16,30.11,30.07,10,10,10,12,6,,0.00,0,,191
2011-10-22,73,55,37,46,40,32,81,56,38,30.11,30.06,30.01,10,10,7,12,5,10,0.00,0,,106
2011-10-23,80,60,39,43,35,28,87,49,15,30.14,30.09,30.05,10,10,10,15,6,21,0.00,0,,250
2011-10-24,86,65,44,45,37,30,62,40,18,30.15,30.09,29.93,10,10,7,36,14,41,0.00,0,,200
2011-10-25,82,70,59,43,35,27,52,31,13,29.94,29.90,29.87,10,10,5,24,17,31,0.00,0,,214
2011-10-26,55,47,39,39,36,32,81,65,51,30.18,30.07,29.93,10,10,10,24,17,33,0.00,5,,15
2011-10-27,48,40,33,34,31,23,100,74,40,30.21,30.17,30.12,10,10,5,21,13,26,0.00,4,,3
2011-10-28,59,44,28,34,24,14,93,58,17,30.31,30.26,30.20,10,10,7,10,6,,0.00,0,,301
2011-10-29,69,50,32,41,32,16,87,55,28,30.24,30.07,29.87,10,10,10,26,14,33,0.00,0,,209
2011-10-30,64,52,39,39,29,23,81,48,22,30.23,30.13,29.94,10,10,10,22,9,26,0.00,0,,344
2011-10-31,77,57,37,36,31,23,75,44,17,30.19,30.07,29.94,10,10,10,26,12,33,0.00,0,,200